sat.trackr.live / text

‹ back to catalog

LEMUR-2-GRAM-E-SUE

NORAD 67370 · 2026-004H

PAYLOAD ACTIVE UNKNOWN

§ Identity

Operator
Country
US
Launch date
2026-01-11
Launch site
AFWTR
Launch vehicle
Mass (kg)
RCS (m²)

Purposes: earth_obs

External: N2YO · Heavens-Above · Gunter

§ Orbital elements

Epoch: 2026-09-19T22:34:39.798624Z

Period
96.71 min
Inclination
97.8046°
Eccentricity
0.0006804
Mean motion
14.88926966 rev/d
Perigee alt
596.5 km
Apogee alt
606.0 km
Semi-major
6,979.4 km
B*
3.2211e-4
RAAN
260.0638°
Arg perigee
179.3396°
Mean anomaly
180.7831°
Rev number
3,739

§ Raw data

LEMUR-2-GRAM-E-SUE1 67370U 26004H   26262.94073841  .00002971  00000+0  32211-3 0  99992 67370  97.8046 260.0638 0006804 179.3396 180.7831 14.88926966 37399

JSON: /api/v1/satellites/67370 · /tle

For live sub-satellite position, see the globe view (requires WebGL).

§ Visibility from observer

Set your observer location to see the next 7 days of passes ≥ 10°. The values pass through the URL so the page stays shareable.

No JS? Fill the form by hand. The geolocation button needs JavaScript.

§ Radio — SatNOGS DB

ModeDescriptionDownlinkUplink
BPSK Mode U - Transmitter 401.100 MHz

1 transmitter · refreshed weekly from db.satnogs.org